H1 CPF 2 NER 2021 8 26 9 238 01 glonass137 H2 1705501 9137 42939 2021 8 26 0 0 0 2021 8 29 23 45 0 900 1 1 0 0 0 1 H9 10 0 59452 0.00000 0 -11214275.776 11301915.598 -19903222.227 10 0 59452 900.00000 0 -10909481.110 8773388.696 -21299126.658 10 0 59452 1800.00000 0 -10781971.482 6083184.132 -22280414.133 10 0 59452 2700.00000 0 -10850658.378 3296723.173 -22828027.850 10 0 59452 3600.00000 0 -11122672.763 482591.564 -22931369.572 10 0 59452 4500.00000 0 -11593014.038 -2290079.328 -22588501.850 10 0 59452 5400.00000 0 -12244729.157 -4954249.502 -21806180.137 10 0 59452 6300.00000 0 -13049614.253 -7447515.948 -20599714.607 10 0 59452 7200.00000 0 -13969408.722 -9714461.354 -18992664.808 10 0 59452 8100.00000 0 -14957430.976 -11708708.901 -17016373.542 10 0 59452 9000.00000 0 -15960586.463 -13394598.615 -14709349.427 10 0 59452 9900.00000 0 -16921662.812 -14748416.655 -12116510.598 10 0 59452 10800.00000 0 -17781814.943 -15759127.892 -9288304.631 10 0 59452 11700.00000 0 -18483135.076 -16428582.994 -6279722.202 10 0 59452 12600.00000 0 -18971199.010 -16771193.258 -3149224.124 10 0 59452 13500.00000 0 -19197481.230 -16813088.850 42397.014 10 0 59452 14400.00000 0 -19121537.051 -16590797.680 3233198.174 10 0 59452 15300.00000 0 -18712859.920 -16149502.116 6361286.890 10 0 59452 16200.00000 0 -17952335.868 -15540948.237 9366018.617 10 0 59452 17100.00000 0 -16833234.006 -14821096.632 12189167.310 10 0 59452 18000.00000 0 -15361691.557 -14047614.179 14776046.801 10 0 59452 18900.00000 0 -13556672.957 -13277312.543 17076561.831 10 0 59452 19800.00000 0 -11449404.372 -12563640.941 19046169.221 10 0 59452 20700.00000 0 -9082306.706 -11954338.095 20646731.395 10 0 59452 21600.00000 0 -6507470.675 -11489341.410 21847246.823 10 0 59452 22500.00000 0 -3784736.203 -11199040.434 22624444.200 10 0 59452 23400.00000 0 -979454.614 -11102947.372 22963229.628 10 0 59452 24300.00000 0 1839975.126 -11208840.025 22856978.764 10 0 59452 25200.00000 0 4604695.633 -11512413.094 22307668.475 10 0 59452 26100.00000 0 7248000.043 -11997452.766 21325845.286 10 0 59452 27000.00000 0 9707854.010 -12636527.948 19930430.689 10 0 59452 27900.00000 0 11929227.462 -13392170.084 18148366.178 10 0 59452 28800.00000 0 13866140.177 -14218493.126 16014103.760 10 0 59452 29700.00000 0 15483336.801 -15063186.706 13568950.520 10 0 59452 30600.00000 0 16757521.912 -15869799.658 10860278.651 10 0 59452 31500.00000 0 17678103.568 -16580218.448 7940615.198 10 0 59452 32400.00000 0 18247414.245 -17137236.341 4866628.263 10 0 59452 33300.00000 0 18480399.728 -17487104.789 1698028.835 10 0 59452 34200.00000 0 18403788.910 -17581958.662 -1503590.504 10 0 59452 35100.00000 0 18054779.459 -17382011.845 -4675957.172 10 0 59452 36000.00000 0 17479294.978 -16857428.986 -7757336.542 10 0 59452 36900.00000 0 16729887.613 -15989792.711 -10687741.649 10 0 59452 37800.00000 0 15863375.349 -14773102.582 -13410110.087 10 0 59452 38700.00000 0 14938314.645 -13214261.903 -15871424.241 10 0 59452 39600.00000 0 14012416.123 -11333030.315 -18023751.978 10 0 59452 40500.00000 0 13140013.432 -9161442.771 -19825186.812 10 0 59452 41400.00000 0 12369693.017 -6742718.164 -21240668.731 10 0 59452 42300.00000 0 11742185.524 -4129702.609 -22242669.312 10 0 59452 43200.00000 0 11288608.240 -1382911.921 -22811727.844 10 0 59452 44100.00000 0 11029132.807 1431745.302 -22936828.115 10 0 59452 45000.00000 0 10972134.276 4245469.135 -22615608.866 10 0 59452 45900.00000 0 11113856.955 6989190.288 -21854404.211 10 0 59452 46800.00000 0 11438610.563 9596203.617 -20668113.686 10 0 59452 47700.00000 0 11919487.657 12004703.820 -19079904.903 10 0 59452 48600.00000 0 12519571.301 14160118.280 -17120755.044 10 0 59452 49500.00000 0 13193581.208 16017140.729 -14828840.493 10 0 59452 50400.00000 0 13889888.107 17541381.873 -12248786.921 10 0 59452 51300.00000 0 14552810.639 18710569.484 -9430794.834 10 0 59452 52200.00000 0 15125097.218 19515249.360 -6429657.919 10 0 59452 53100.00000 0 15550487.608 19958959.511 -3303693.816 10 0 59452 54000.00000 0 15776245.760 20057872.130 -113608.431 10 0 59452 54900.00000 0 15755556.824 19839920.186 3078683.813 10 0 59452 55800.00000 0 15449687.132 19343446.955 6211260.533 10 0 59452 56700.00000 0 14829816.120 18615436.705 9223389.412 10 0 59452 57600.00000 0 13878463.062 17709402.023 12056700.558 10 0 59452 58500.00000 0 12590448.592 16683017.300 14656310.724 10 0 59452 59400.00000 0 10973350.499 15595598.158 16971878.192 10 0 59452 60300.00000 0 9047434.300 14505532.597 18958568.718 10 0 59452 61200.00000 0 6845060.923 13467771.274 20577914.643 10 0 59452 62100.00000 0 4409595.304 12531481.517 21798551.642 10 0 59452 63000.00000 0 1793860.118 11737962.568 22596819.792 10 0 59452 63900.00000 0 -941802.388 11118908.603 22957218.132 10 0 59452 64800.00000 0 -3731781.702 10695091.520 22872704.521 10 0 59452 65700.00000 0 -6507671.820 10475518.201 22344835.219 10 0 59452 66600.00000 0 -9200864.629 10457097.338 21383741.353 10 0 59452 67500.00000 0 -11745158.001 10624829.944 20007942.185 10 0 59452 68400.00000 0 -14079271.836 10952516.000 18243997.911 10 0 59452 69300.00000 0 -16149168.558 11403948.309 16126007.596 10 0 59452 70200.00000 0 -17910082.382 11934544.187 13694960.691 10 0 59452 71100.00000 0 -19328173.201 12493347.159 10997953.381 10 0 59452 72000.00000 0 -20381736.106 13025315.011 8087283.868 10 0 59452 72900.00000 0 -21061915.798 13473798.030 5019443.237 10 0 59452 73800.00000 0 -21372895.692 13783102.780 1854020.909 10 0 59452 74700.00000 0 -21331553.349 13901032.616 -1347454.109 10 0 59452 75600.00000 0 -20966596.567 13781296.601 -4522713.461 10 0 59452 76500.00000 0 -20317216.380 13385683.648 -7609967.233 10 0 59452 77400.00000 0 -19431313.907 12685908.370 -10549114.689 10 0 59452 78300.00000 0 -18363376.288 11665048.866 -13282923.396 10 0 59452 79200.00000 0 -17172091.895 10318513.855 -15758152.799 10 0 59452 80100.00000 0 -15917806.280 8654496.667 -17926599.312 10 0 59452 81000.00000 0 -14659926.965 6693895.354 -19746041.863 10 0 59452 81900.00000 0 -13454387.296 4469700.884 -21181068.948 10 0 59452 82800.00000 0 -12351276.911 2025878.056 -22203770.714 10 0 59452 83700.00000 0 -11392738.969 -584214.817 -22794282.603 10 0 59452 84600.00000 0 -10611222.822 -3299801.996 -22941170.118 10 0 59452 85500.00000 0 -10028165.419 -6054979.929 -22641647.498 10 0 59453 0.00000 0 -9653156.405 -8781225.178 -21901626.489 10 0 59453 900.00000 0 -9483621.429 -11410016.435 -20735594.549 10 0 59453 1800.00000 0 -9505035.331 -13875461.541 -19166325.704 10 0 59453 2700.00000 0 -9691656.281 -16116820.156 -17224429.564 10 0 59453 3600.00000 0 -10007747.394 -18080818.223 -14947748.143 10 0 59453 4500.00000 0 -10409234.079 -19723657.663 -12380612.402 10 0 59453 5400.00000 0 -10845725.675 -21012638.836 -9572973.453 10 0 59453 6300.00000 0 -11262815.162 -21927329.139 -6579425.690 10 0 59453 7200.00000 0 -11604559.046 -22460230.201 -3458141.303 10 0 59453 8100.00000 0 -11816032.016 -22616917.359 -269737.301 10 0 59453 9000.00000 0 -11845848.050 -22415647.189 2923902.669 10 0 59453 9900.00000 0 -11648541.266 -21886451.087 6060828.434 10 0 59453 10800.00000 0 -11186705.913 -21069754.415 9080221.999 10 0 59453 11700.00000 0 -10432805.207 -20014580.318 11923571.690 10 0 59453 12600.00000 0 -9370572.827 -18776414.455 14535799.194 10 0 59453 13500.00000 0 -7995947.989 -17414820.711 16866318.267 10 0 59453 14400.00000 0 -6317504.511 -15990907.899 18870005.379 10 0 59453 15300.00000 0 -4356355.407 -14564753.281 20508064.384 10 0 59453 16200.00000 0 -2145536.095 -13192890.177 21748769.500 10 0 59453 17100.00000 0 271109.210 -11925963.825 22568073.252 10 0 59453 18000.00000 0 2840492.930 -10806652.617 22950068.368 10 0 59453 18900.00000 0 5502238.003 -9867940.577 22887295.346 10 0 59453 19800.00000 0 8190940.870 -9131812.455 22380889.965 10 0 59453 20700.00000 0 10838651.411 -8608425.406 21440567.765 10 0 59453 21600.00000 0 13377468.698 -8295791.580 20084445.281 10 0 59453 22500.00000 0 15742146.336 -8179984.876 18338700.599 10 0 59453 23400.00000 0 17872600.304 -8235863.510 16237078.717 10 0 59453 24300.00000 0 19716215.864 -8428278.453 13820249.973 10 0 59453 25200.00000 0 21229857.864 -8713717.537 11135032.695 10 0 59453 26100.00000 0 22381500.573 -9042316.448 8233494.017 10 0 59453 27000.00000 0 23151408.669 -9360152.129 5171945.410 10 0 59453 27900.00000 0 23532819.476 -9611721.770 2009851.800 10 0 59453 28800.00000 0 23532097.213 -9742502.243 -1191324.569 10 0 59453 29700.00000 0 23168352.303 -9701480.966 -4369322.903 10 0 59453 30600.00000 0 22472541.350 -9443549.931 -7462301.367 10 0 59453 31500.00000 0 21486085.514 -8931660.135 -10410048.729 10 0 59453 32400.00000 0 20259065.619 -8138643.576 -13155165.607 10 0 59453 33300.00000 0 18848070.365 -7048623.946 -15644191.306 10 0 59453 34200.00000 0 17313788.911 -5657954.681 -17828653.263 10 0 59453 35100.00000 0 15718449.888 -3975643.060 -19666017.940 10 0 59453 36000.00000 0 14123215.338 -2023240.970 -21120524.063 10 0 59453 36900.00000 0 12585639.867 165794.360 -22163881.660 10 0 59453 37800.00000 0 11157302.216 2547243.839 -22775823.208 10 0 59453 38700.00000 0 9881708.881 5067727.163 -22944496.356 10 0 59453 39600.00000 0 8792557.680 7666694.130 -22666690.814 10 0 59453 40500.00000 0 7912433.603 10278723.856 -21947895.424 10 0 59453 41400.00000 0 7251990.812 12836036.214 -20802184.747 10 0 59453 42300.00000 0 6809654.025 15271110.863 -19251937.801 10 0 59453 43200.00000 0 6571850.430 17519304.941 -17327394.905 10 0 59453 44100.00000 0 6513760.864 19521360.571 -15066061.583 10 0 59453 45000.00000 0 6600557.095 21225697.964 -12511971.629 10 0 59453 45900.00000 0 6789071.568 22590399.075 -9714824.010 10 0 59453 46800.00000 0 7029827.794 23584799.790 -6729010.809 10 0 59453 47700.00000 0 7269344.538 24190625.080 -3612555.572 10 0 59453 48600.00000 0 7452615.484 24402620.875 -425983.093 10 0 59453 49500.00000 0 7525658.907 24228657.527 2768857.084 10 0 59453 50400.00000 0 7438029.186 23689301.889 5909990.241 10 0 59453 51300.00000 0 7145183.782 22816877.268 8936515.780 10 0 59453 52200.00000 0 6610605.661 21654051.796 11789783.070 10 0 59453 53100.00000 0 5807591.647 20252015.252 14414521.261 10 0 59453 54000.00000 0 4720631.301 18668321.278 16759901.771 10 0 59453 54900.00000 0 3346318.158 16964485.434 18780513.647 10 0 59453 55800.00000 0 1693754.687 15203439.400 20437233.748 10 0 59453 56700.00000 0 -215566.700 13446947.099 21697975.994 10 0 59453 57600.00000 0 -2348402.676 11753089.790 22538306.135 10 0 59453 58500.00000 0 -4660892.670 10173924.046 22941910.986 10 0 59453 59400.00000 0 -7100141.625 8753409.180 22900913.656 10 0 59453 60300.00000 0 -9606187.820 7525689.477 22416028.965 10 0 59453 61200.00000 0 -12114275.752 6513802.001 21496555.907 10 0 59453 62100.00000 0 -14557341.529 5728863.224 20160206.834 10 0 59453 63000.00000 0 -16868609.131 5169768.019 18432775.781 10 0 59453 63900.00000 0 -18984190.867 4823413.545 16347651.266 10 0 59453 64800.00000 0 -20845584.786 4665438.665 13945181.720 10 0 59453 65700.00000 0 -22401965.497 4661448.138 11271904.515 10 0 59453 66600.00000 0 -23612172.807 4768670.366 8379652.426 10 0 59453 67500.00000 0 -24446314.768 4937979.058 5324553.918 10 0 59453 68400.00000 0 -24886917.411 5116193.477 2165946.056 10 0 59453 69300.00000 0 -24929572.149 5248559.798 -1034778.959 10 0 59453 70200.00000 0 -24583052.875 5281307.974 -4215371.019 10 0 59453 71100.00000 0 -23868897.103 5164174.868 -7313939.306 10 0 59453 72000.00000 0 -22820468.249 4852785.538 -10270164.814 10 0 59453 72900.00000 0 -21481538.288 4310790.280 -13026483.674 10 0 59453 73800.00000 0 -19904450.429 3511665.279 -15529217.219 10 0 59453 74700.00000 0 -18147939.472 2440098.993 -17729625.711 10 0 59453 75600.00000 0 -16274701.964 1092904.010 -19584864.519 10 0 59453 76500.00000 0 -14348818.859 -520585.693 -21058823.505 10 0 59453 77400.00000 0 -12433139.492 -2378650.151 -22122832.963 10 0 59453 78300.00000 0 -10586737.077 -4447846.946 -22756222.278 10 0 59453 79200.00000 0 -8862542.549 -6684175.982 -22946720.608 10 0 59453 80100.00000 0 -7305255.880 -9034697.291 -22690692.027 10 0 59453 81000.00000 0 -5949621.865 -11439534.659 -21993200.984 10 0 59453 81900.00000 0 -4819141.746 -13834181.636 -20867907.222 10 0 59453 82800.00000 0 -3925273.552 -16152013.720 -19336792.644 10 0 59453 83700.00000 0 -3267153.177 -18326901.964 -17429725.903 10 0 59453 84600.00000 0 -2831846.218 -20295819.050 -15183873.553 10 0 59453 85500.00000 0 -2595118.231 -22001329.155 -12642969.679 10 0 59454 0.00000 0 -2522689.164 -23393857.989 -9856458.646 10 0 59454 900.00000 0 -2571917.364 -24433648.411 -6878527.654 10 0 59454 1800.00000 0 -2693840.746 -25092321.186 -3767049.334 10 0 59454 2700.00000 0 -2835487.399 -25353975.065 -582454.078 10 0 59454 3600.00000 0 -2942357.258 -25215782.779 2613444.723 10 0 59454 4500.00000 0 -2960969.089 -24688057.792 5758649.744 10 0 59454 5400.00000 0 -2841364.790 -23793790.739 8792179.613 10 0 59454 6300.00000 0 -2539464.965 -22567675.765 11655246.481 10 0 59454 7200.00000 0 -2019176.351 -21054668.385 14292388.615 10 0 59454 8100.00000 0 -1254162.201 -19308135.780 16652536.652 10 0 59454 9000.00000 0 -229201.070 -17387677.004 18689993.632 10 0 59454 9900.00000 0 1058923.325 -15356704.068 20365310.676 10 0 59454 10800.00000 0 2601038.956 -13279884.260 21646042.451 10 0 59454 11700.00000 0 4375725.918 -11220549.486 22507368.758 10 0 59454 12600.00000 0 6349975.643 -9238179.512 22932571.067 10 0 59454 13500.00000 0 8480342.856 -7386062.655 22913355.422 10 0 59454 14400.00000 0 10714543.976 -5709230.045 22450015.751 10 0 59454 15300.00000 0 12993437.196 -4242748.373 21551434.326 10 0 59454 16200.00000 0 15253303.689 -3010441.256 20234918.887 10 0 59454 17100.00000 0 17428336.789 -2024091.802 18525878.746 10 0 59454 18000.00000 0 19453236.877 -1283159.266 16457345.011 10 0 59454 18900.00000 0 21265804.980 -775021.410 14069342.988 10 0 59454 19800.00000 0 22809427.570 -475732.378 11408127.561 10 0 59454 20700.00000 0 24035348.846 -351264.378 8525295.278 10 0 59454 21600.00000 0 24904635.241 -359180.957 5476789.398 10 0 59454 22500.00000 0 25389749.181 -450671.290 2321816.585 10 0 59454 23400.00000 0 25475665.136 -572859.351 -878303.811 10 0 59454 24300.00000 0 25160480.089 -671289.761 -4061335.391 10 0 59454 25200.00000 0 24455491.718 -692484.276 -7165341.456 10 0 59454 26100.00000 0 23384740.116 -586459.519 -10129898.322 10 0 59454 27000.00000 0 21984031.691 -309097.935 -12897280.604 10 0 59454 27900.00000 0 20299485.924 175730.012 -15413594.417 10 0 59454 28800.00000 0 18385666.040 894383.810 -17629835.350 10 0 59454 29700.00000 0 16303372.298 1862088.017 -19502849.877 10 0 59454 30600.00000 0 14117190.885 3082043.723 -20996180.899 10 0 59454 31500.00000 0 11892901.676 4545055.154 -22080780.551 10 0 59454 32400.00000 0 9694853.834 6229688.311 -22735576.366 10 0 59454 33300.00000 0 7583419.299 8102955.960 -22947879.893 10 0 59454 34200.00000 0 5612630.753 10121500.851 -22713630.063 10 0 59454 35100.00000 0 3828102.406 12233228.072 -22037466.999 10 0 59454 36000.00000 0 2265319.838 14379318.493 -20932635.236 10 0 59454 36900.00000 0 948369.349 16496539.149 -19420718.715 10 0 59454 37800.00000 0 -110841.436 18519753.970 -17531213.124 10 0 59454 38700.00000 0 -912840.824 20384529.927 -15300944.306 10 0 59454 39600.00000 0 -1470319.201 22029729.552 -12773344.480 10 0 59454 40500.00000 0 -1807337.619 23399981.499 -9997600.759 10 0 59454 41400.00000 0 -1958054.089 24447926.007 -7027692.879 10 0 59454 42300.00000 0 -1965023.019 25136141.543 -3921339.357 10 0 59454 43200.00000 0 -1877141.186 25438672.505 -738872.934 10 0 59454 44100.00000 0 -1747328.279 25342094.624 2457932.490 10 0 59454 45000.00000 0 -1630040.962 24846074.197 5607060.286 10 0 59454 45900.00000 0 -1578726.203 23963398.562 8647451.540 10 0 59454 46800.00000 0 -1643321.796 22719477.303 11520184.235 10 0 59454 47700.00000 0 -1867909.741 21151335.742 14169608.584 10 0 59454 48600.00000 0 -2288621.423 19306143.283 16544416.993 10 0 59454 49500.00000 0 -2931882.805 17239338.191 18598628.745 10 0 59454 50400.00000 0 -3813073.427 15012426.974 20292471.172 10 0 59454 51300.00000 0 -4935655.740 12690549.534 21593141.296 10 0 59454 52200.00000 0 -6290811.777 10339910.619 22475434.217 10 0 59454 53100.00000 0 -7857603.116 8025183.385 22922226.925 10 0 59454 54000.00000 0 -9603648.625 5806991.693 22924808.828 10 0 59454 54900.00000 0 -11486293.164 3739574.415 22483052.918 10 0 59454 55800.00000 0 -13454220.106 1868727.592 21605424.188 10 0 59454 56700.00000 0 -15449442.238 230108.807 20308824.679 10 0 59454 57600.00000 0 -17409589.819 -1152026.607 18618277.332 10 0 59454 58500.00000 0 -19270401.847 -2265605.498 16566453.680 10 0 59454 59400.00000 0 -20968317.824 -3111000.867 14193053.254 10 0 59454 60300.00000 0 -22443062.603 -3700769.089 11544045.406 10 0 59454 61200.00000 0 -23640116.427 -4058871.444 8670787.106 10 0 59454 62100.00000 0 -24512966.640 -4219412.685 5629032.857 10 0 59454 63000.00000 0 -25025045.992 -4224949.900 2477855.292 10 0 59454 63900.00000 0 -25151275.188 -4124443.116 -721502.718 10 0 59454 64800.00000 0 -24879143.686 -3970934.766 -3906822.013 10 0 59454 65700.00000 0 -24209282.003 -3819056.839 -7016123.403 10 0 59454 66600.00000 0 -23155500.225 -3722472.222 -9988881.702 10 0 59454 67500.00000 0 -21744290.097 -3731359.821 -12767212.939 10 0 59454 68400.00000 0 -20013810.804 -3890051.372 -15297010.625 10 0 59454 69300.00000 0 -18012400.657 -4234921.450 -17529007.905 10 0 59454 70200.00000 0 -15796676.992 -4792621.432 -19419744.130 10 0 59454 71100.00000 0 -13429304.008 -5578733.506 -20932416.453 10 0 59454 72000.00000 0 -10976522.369 -6596902.762 -22037599.478 10 0 59454 72900.00000 0 -8505544.175 -7838485.070 -22713818.886 10 0 59454 73800.00000 0 -6081922.402 -9282726.460 -22947967.995 10 0 59454 74700.00000 0 -3767004.778 -10897467.046 -22735559.404 10 0 59454 75600.00000 0 -1615578.128 -12640340.410 -22080807.213 10 0 59454 76500.00000 0 326199.073 -14460418.356 -20996538.655 10 0 59454 77400.00000 0 2022490.470 -16300232.116 -19503937.284 10 0 59454 78300.00000 0 3449032.501 -18098085.292 -17632123.172 10 0 59454 79200.00000 0 4593891.277 -19790561.517 -15417578.644 10 0 59454 80100.00000 0 5457695.810 -21315121.611 -12903431.184 10 0 59454 81000.00000 0 6053339.880 -22612681.323 -10138607.839 10 0 59454 81900.00000 0 6405167.132 -23630061.602 -7176877.927 10 0 59454 82800.00000 0 6547675.713 -24322208.722 -4075803.180 10 0 59454 83700.00000 0 6523798.874 -24654091.416 -895616.111 10 0 59454 84600.00000 0 6382835.686 -24602195.804 2301951.285 10 0 59454 85500.00000 0 6178120.437 -24155555.896 5454865.319 10 0 59455 0.00000 0 5964530.076 -23316277.078 8501991.489 10 0 59455 900.00000 0 5795935.756 -22099530.834 11384275.561 10 0 59455 1800.00000 0 5722705.478 -20533022.372 14045881.241 10 0 59455 2700.00000 0 5789364.683 -18655952.210 16435264.082 10 0 59455 3600.00000 0 6032511.588 -16517516.623 18506160.761 10 0 59455 4500.00000 0 6479075.971 -14175008.390 20218475.709 10 0 59455 5400.00000 0 7144993.984 -11691596.782 21539048.928 10 0 59455 6300.00000 0 8034354.896 -9133878.143 22442291.186 10 0 59455 7200.00000 0 9139055.861 -6569297.833 22910675.095 10 0 59455 8100.00000 0 10438979.941 -4063549.215 22935073.288 10 0 59455 9000.00000 0 11902691.034 -1678056.192 22514937.459 10 0 59455 9900.00000 0 13488617.991 532357.541 21658314.756 10 0 59455 10800.00000 0 15146680.074 2521517.134 20381700.769 10 0 59455 11700.00000 0 16820287.510 4253579.075 18709731.150 10 0 59455 12600.00000 0 18448635.054 5704278.335 16674716.760 10 0 59455 13500.00000 0 19969194.028 6861688.832 14316030.075 10 0 59455 14400.00000 0 21320299.520 7726465.815 11679353.428 10 0 59455 15300.00000 0 22443724.818 8311560.174 8815802.495 10 0 59455 16200.00000 0 23287135.132 8641416.753 5780941.071 10 0 59455 17100.00000 0 23806317.091 8750690.477 2633705.565 10 0 59455 18000.00000 0 23967089.359 8682534.506 -564740.034 10 0 59455 18900.00000 0 23746812.789 8486533.021 -3752196.363 10 0 59455 19800.00000 0 23135435.104 8216366.610 -6866644.391 10 0 59455 20700.00000 0 22136024.672 7927309.772 -9847460.077 10 0 59455 21600.00000 0 20764769.554 7673667.559 -12636603.418 10 0 59455 22500.00000 0 19050440.650 7506261.105 -15179757.739 10 0 59455 23400.00000 0 17033340.684 7470069.771 -17427395.954 10 0 59455 24300.00000 0 14763782.526 7602131.032 -19335752.301 10 0 59455 25200.00000 0 12300160.387 7929788.167 -20867679.989 10 0 59455 26100.00000 0 9706694.602 8469360.882 -21993377.677 10 0 59455 27000.00000 0 7050944.428 9225295.908 -22690970.557 10 0 59455 27900.00000 0 4401192.780 10189834.119 -22946934.833 10 0 59455 28800.00000 0 1823812.204 11343208.663 -22756357.582 10 0 59455 29700.00000 0 -619278.282 12654366.054 -22123027.339 10 0 59455 30600.00000 0 -2872959.849 14082180.075 -21059354.071 10 0 59455 31500.00000 0 -4890966.858 15577107.350 -19586120.529 10 0 59455 32400.00000 0 -6637561.650 17083214.976 -17732070.280 10 0 59455 33300.00000 0 -8088762.642 18540494.815 -15533340.790 10 0 59455 34200.00000 0 -9233076.034 19887367.001 -13032753.032 10 0 59455 35100.00000 0 -10071702.459 21063267.300 -10278971.832 10 0 59455 36000.00000 0 -10618212.019 22011209.462 -7325553.625 10 0 59455 36900.00000 0 -10897703.369 22680214.820 -4229900.651 10 0 59455 37800.00000 0 -10945484.286 23027507.065 -1052142.287 10 0 59455 38700.00000 0 -10805331.096 23020380.130 2146034.385 10 0 59455 39600.00000 0 -10527401.826 22637660.967 5302581.681 10 0 59455 40500.00000 0 -10165892.333 21870706.124 8356292.709 10 0 59455 41400.00000 0 -9776535.080 20723890.606 11247983.798 10 0 59455 42300.00000 0 -9414046.497 19214568.879 13921635.164 10 0 59455 43200.00000 0 -9129630.682 17372509.734 16325468.284 10 0 59455 44100.00000 0 -8968644.420 15238828.580 18412939.805 10 0 59455 45000.00000 0 -8968521.510 12864461.433 20143633.592 10 0 59455 45900.00000 0 -9157043.321 10308243.524 21484034.707 10 0 59455 46800.00000 0 -9551027.960 7634671.510 22408171.337 10 0 59455 47700.00000 0 -10155493.013 4911441.135 22898113.105 10 0 59455 48600.00000 0 -10963327.215 2206861.131 22944316.839 10 0 59455 49500.00000 0 -11955485.426 -412750.962 22545813.441 10 0 59455 50400.00000 0 -13101699.684 -2885584.454 21710232.202 10 0 59455 51300.00000 0 -14361677.841 -5156659.766 20453661.708 10 0 59455 52200.00000 0 -15686741.032 -7179866.114 18800349.202 10 0 59455 53100.00000 0 -17021832.865 -8919628.796 16782243.200 10 0 59455 54000.00000 0 -18307817.506 -10352137.476 14438386.935 10 0 59455 54900.00000 0 -19483971.406 -11466084.698 11814173.072 10 0 59455 55800.00000 0 -20490564.732 -12262883.900 8960472.967 10 0 59455 56700.00000 0 -21271424.272 -12756357.976 5932656.386 10 0 59455 57600.00000 0 -21776369.747 -12971911.430 2789520.007 10 0 59455 58500.00000 0 -21963420.156 -12945221.040 -407854.680 10 0 59455 59400.00000 0 -21800676.080 -12720500.439 -3597291.751 10 0 59455 60300.00000 0 -21267797.126 -12348412.291 -6716735.931 10 0 59455 61200.00000 0 -20357010.653 -11883716.911 -9705467.820 10 0 59455 62100.00000 0 -19073607.684 -11382757.687 -12505294.721 10 0 59455 63000.00000 0 -17435903.576 -10900890.708 -15061692.860 10 0 59455 63900.00000 0 -15474663.922 -10489968.522 -17324877.691 10 0 59455 64800.00000 0 -13232018.764 -10195985.644 -19250780.673 10 0 59455 65700.00000 0 -10759909.991 -10056986.439 -20801912.892 10 0 59455 66600.00000 0 -8118136.578 -10101324.753 -21948098.282 10 0 59455 67500.00000 0 -5372079.226 -10346349.512 -22667062.117 10 0 59455 68400.00000 0 -2590199.307 -10797572.271 -22944863.401 10 0 59455 69300.00000 0 158583.503 -11448352.110 -22776162.975 10 0 59455 70200.00000 0 2807525.761 -12280111.192 -22164322.537 10 0 59455 71100.00000 0 5294597.525 -13263071.856 -21121333.033 10 0 59455 72000.00000 0 7564817.091 -14357483.940 -19667574.273 10 0 59455 72900.00000 0 9572286.791 -15515290.330 -17831410.861 10 0 59455 73800.00000 0 11281846.096 -16682160.287 -15648632.690 10 0 59455 74700.00000 0 12670274.380 -17799804.522 -13161751.321 10 0 59455 75600.00000 0 13726994.854 -18808474.212 -10419166.303 10 0 59455 76500.00000 0 14454252.089 -19649538.421 -7474218.031 10 0 59455 77400.00000 0 14866757.676 -20268031.155 -4384146.049 10 0 59455 78300.00000 0 14990820.959 -20615060.671 -1208973.422 10 0 59455 79200.00000 0 14863003.303 -20649979.583 1989660.772 10 0 59455 80100.00000 0 14528354.216 -20342224.518 5149697.770 10 0 59455 81000.00000 0 14038305.030 -19672748.084 8209860.898 10 0 59455 81900.00000 0 13448309.943 -18634983.134 11110839.527 10 0 59455 82800.00000 0 12815334.417 -17235299.014 13796432.354 10 0 59455 83700.00000 0 12195297.006 -15492930.641 16214628.413 10 0 59455 84600.00000 0 11640572.187 -13439383.205 18318605.577 10 0 59455 85500.00000 0 11197658.915 -11117336.969 20067628.021 99